Regional Weather Roundup
Issued by NWS

Current Version | Previous Version | Text Only | Print | Product List | Glossary On
Versions: 1 2 3 4 5 6 7 8 9 10 11 12 13 14 15 16 17 18 19 20 21 22 23 24 25 26 27
000
ASUS44 KBMX 210910
RWRAL

ALABAMA REGIONAL WEATHER ROUNDUP
NATIONAL WEATHER SERVICE BIRMINGHAM AL
400 AM CDT SAT OCT 21 2017

NOTE: "FAIR" INDICATES FEW OR NO CLOUDS BELOW 12,000 FEET
WITH NO SIGNIFICANT WEATHER AND/OR OBSTRUCTIONS TO VISIBILITY.

THE REMARK "TC" DENOTES TEMPERATURE IN DEGREES CELSIUS.

ALZ001>011-014-016>018-020-211000-
NORTH ALABAMA

CITY           SKY/WX    TMP DP  RH WIND       PRES   REMARKS
MUSCLE SHOALS  PTCLDY    51  46  83 CALM      30.17S
HUNTSVILLE     CLOUDY    54  51  90 E7        30.17F
DECATUR        PTCLDY    50  50 100 E3        30.18S
HALEYVILLE     FAIR      52  50  93 SE3       30.18F
GADSDEN        PTCLDY    46  46 100 CALM      30.21R
$$

ALZ012-013-022-023-030>036-040>044-211000-
WEST CENTRAL ALABAMA

CITY           SKY/WX    TMP DP  RH WIND       PRES   REMARKS
TUSCALOOSA     PTCLDY    55  54  96 CALM      30.14F
DEMOPOLIS        N/A     60  54  81 CALM      30.11F
$$

ALZ015-024>026-033>036-041>044-211000-
CENTRAL ALABAMA

CITY           SKY/WX    TMP DP  RH WIND       PRES   REMARKS
BIRMINGHAM     PTCLDY    62  47  57 E6        30.19S
MONTGOMERY     MOCLDY    59  50  72 E5        30.15F
SHELBY CO ARPT PTCLDY    57  53  86 CALM      30.17S
MAXWELL AFB    MOCLDY    58  53  81 N5        30.14F
GREENVILLE     FAIR      62  51  67 CALM      30.13S
SELMA          FAIR      59  52  77 E5        30.13S
PRATTVILLE     FAIR      55  52  89 CALM      30.15S
BESSEMER       FAIR      61  49  64 E8        30.16F
TALLADEGA      FAIR      50  49  97 CALM      30.20R
PELL CITY      MOSUNNY   48  48 100 CALM      30.19S
MARION         NOT AVBL
SYLACAUGA      MOCLDY   N/A N/A N/A CALM      30.18S
$$

ALZ019-021-028-029-037-038-045>048-211000-
EAST CENTRAL ALABAMA

CITY           SKY/WX    TMP DP  RH WIND       PRES   REMARKS
ANNISTON       PTCLDY    53  49  86 NE6       30.21S
ALEXANDER CITY PTCLDY    54  51  87 CALM      30.18F
AUBURN         CLOUDY    61  54  77 E7        30.20F
$$

ALZ051>064-211000-
SOUTHWEST ALABAMA

CITY           SKY/WX    TMP DP  RH WIND       PRES   REMARKS
MOBILE         PTCLDY    66  60  81 NE3       30.08S
BROOKLEY FIELD CLOUDY    71  66  84 E7        30.08F
EVERGREEN      PTCLDY    57  56  96 CALM      30.12F
$$

ALZ049-050-065>069-211000-
SOUTHEAST ALABAMA

CITY           SKY/WX    TMP DP  RH WIND       PRES   REMARKS
DOTHAN         PTCLDY    64  60  87 E6        30.18S
OZARK          PTCLDY    62  56  81 E7        30.14S
TROY           PTCLDY    59  55  87 NE3       30.16S
EUFAULA        FAIR      57  55  93 CALM      30.17R
$$




USA.gov is the U.S. government's official web portal to all federal, state and local government web resources and services.